Regional Weather Roundup
Issued by NWS

Home | Current Version | Previous Version | Graphics & Text | Print | Product List | Glossary On
Versions: 1 2 3 4 5 6 7 8 9 10 11 12 13 14 15 16 17 18 19 20 21 22 23 24 25 26 27
000
ASUS45 KTFX 231510
RWRMT
MONTANA REGIONAL WEATHER ROUNDUP
NATIONAL WEATHER SERVICE GREAT FALLS MT
900 AM MDT THU MAR 23 2017

NOTE: "FAIR" INDICATES FEW OR NO CLOUDS BELOW 12000 FEET WITH NO
SIGNIFICANT WEATHER AND/OR OBSTRUCTIONS TO VISIBILITY.

MTZ001>007-043-231600-
WEST OF THE DIVIDE

CITY           SKY/WX    TMP DP  RH WIND       PRES   REMARKS
KALISPELL      CLOUDY    39  35  86 S9        29.95R
MISSOULA       PTSUNNY   40  31  70 N6        30.00S
BUTTE          CLOUDY    34  27  75 NW8       29.92R WCI  27
MULLAN PASS    CLOUDY    25  22  88 VRB5      29.94R FOG
ANACONDA         N/A     37  27  65 NW3       29.93F
DEER LODGE       N/A     37  28  70 CALM      29.96R
EUREKA           N/A     43  30  61 SE8       29.95R
HAMILTON         N/A     39  28  65 CALM      29.98R
PLAINS           N/A     37  33  85 CALM      30.01
RONAN            N/A     40  34  79 CALM      30.02R
$$

MTZ008-052>055-231600-
SOUTHWEST MONTANA

CITY           SKY/WX    TMP DP  RH WIND       PRES   REMARKS
BOZEMAN        CLOUDY    41  32  70 W8        29.90R
DILLON         CLOUDY    38  29  70 E6        29.89R
W YELLOWSTONE  CLOUDY    25  23  93 CALM      29.85R
ENNIS          CLOUDY    37  30  75 CALM      29.93R
$$

MTZ009-010-012-014-046-048-049-054-231600-
EAST SLOPES AND CENTRAL MONTANA

CITY           SKY/WX    TMP DP  RH WIND       PRES   REMARKS
CUT BANK       SUNNY     39  29  67 SW17      29.82S WCI  30
GREAT FALLS    SUNNY     41  30  65 SW9       29.85R
HELENA         SUNNY     44  29  55 W8        29.91R
AUGUSTA          N/A     42  22  45 W22G28    29.84F
BOWMANS CRNR     N/A     39  29  67 S13       29.85S WCI  31
CHOTEAU          N/A     43  27  52 VRB5      29.87R
CONRAD           N/A     43  32  65 SW10      29.86S
FAIRFIELD        N/A     42  26  51 SW9       29.84S
POWER            N/A     39  30  70 SW7       29.84S
RAYNESFORD       N/A     33  27  80 CALM      29.86R
$$

MTZ011-013-016-021-045-047-050-051-231600-
NORTH CENTRAL MONTANA

CITY           SKY/WX    TMP DP  RH WIND       PRES   REMARKS
HAVRE          SUNNY     38  31  76 SW16      29.82R WCI  29
LEWISTOWN      CLOUDY    38  29  70 W5        29.84R
N BAR RANCH    CLOUDY    43  28  56 NW12      29.84R
CHINOOK          N/A     39  32  75 CALM      29.81S
DENTON           N/A     35  29  79 S7        29.81R WCI  29
FORT BENTON      N/A     39  28  65 MISG      29.86S VSB 1/2
GEYSER           N/A     41  28  60 W9        29.84R
GRASS RANGE    CLOUDY    46  28  49 W17       29.79R
STANFORD         N/A     38  27  64 NW9       29.84R WCI  31
WINIFRED         N/A     40  29  66 W7        29.83R
$$

MTZ017>020-022>027-061-062-231600-
NORTHEAST MONTANA

CITY           SKY/WX    TMP DP  RH WIND       PRES   REMARKS
GLASGOW        MOSUNNY   36  31  82 W8        29.77R WCI  30
JORDAN           N/A     42  38  85 W6        29.77R
SIDNEY         CLOUDY    38  35  89 SE3       29.75S
WOLF POINT     CLOUDY    37  34  89 SW6       29.76R
MALTA          SUNNY     36  32  87 SW7       29.80R WCI  30
PLENTYWOOD       N/A     39  36  87 CALM      29.75S
POPLAR           N/A     36  34  93 CALM      29.76R
$$

MTZ028>42-056>058-231600-
SOUTHCENTRAL AND SOUTHEAST MONTANA

CITY           SKY/WX    TMP DP  RH WIND       PRES   REMARKS
BAKER          CLOUDY    43  36  76 NE8       29.72F
BILLINGS       CLOUDY    44  37  76 NW13      29.78R
LIVINGSTON     CLOUDY    43  30  60 W8        29.86R
MILES CITY     CLOUDY    46  41  82 NW9       29.75S
BIG TIMBER     PTSUNNY   45  30  57 W18       29.85S
EKALAKA          N/A     44  38  79 N7        29.73
FORSYTH          N/A     46  45  93 W5        29.77R
HARLOWTON      PTSUNNY   44  29  55 W17       29.82S
LAUREL           N/A     46  34  63 W5        29.79S
$$

REGIONAL REPORTS...DAKOTAS

CITY           SKY/WX    TMP DP  RH WIND       PRES   REMARKS
WILLISTON      CLOUDY    37  33  85 CALM      29.77R
MINOT          CLOUDY    38  31  76 W5        29.73S
DICKINSON      CLOUDY    39  34  82 W8        29.72R
BEACH            N/A    N/A N/A N/A MISG        N/A
TIOGA            N/A     34  34 100 CALM      29.75F
BISMARCK       LGT RAIN  36  33  89 VRB3      29.77R FOG
GRAND FORKS    CLOUDY    36  28  73 S15       29.84F WCI  27
FARGO          LGT RAIN  38  28  67 S28G36    29.88S WCI  26
BUFFALO SD       N/A     45  41  86 NE10      29.63F
RAPID CITY     SUNNY     50  40  68 N17G26    29.64F
$$

REGIONAL REPORTS...WYOMING/IDAHO/WASHINGTON

CITY           SKY/WX    TMP DP  RH WIND       PRES   REMARKS
GILLETTE       LGT RAIN  43  42  97 NW10      29.71F
SHERIDAN       LGT RAIN  44  42  93 NW5       29.77R
BUFFALO WY     LGT RAIN  42  38  85 N14G22    29.76R
CODY           CLOUDY    44  32  62 N8        29.77R
YELLOWSTONE LA   N/A     31  26  82 VRB5      29.82R
IDAHO FALLS    CLOUDY    37  35  92 CALM      29.82R
SALMON         SUNNY     39  28  65 CALM      29.94R
BOISE          SUNNY     38  31  76 NW14      29.99R WCI  30
SPOKANE        MOSUNNY   34  31  88 S13       30.02R WCI  25
$$

REGIONAL REPORTS...ALBERTA

CITY           SKY/WX    TMP DP  RH WIND       PRES   REMARKS
EDMONTON       CLOUDY    27  23  86 SE5       29.75R
CALGARY        MOSUNNY   39  23  52 SW7       29.71R
LETHBRIDGE     MOSUNNY   41  30  65 SW13      29.78R
MEDICINE HAT   MOSUNNY   45  32  61 S12       29.76R
WATERTON GATE    N/A     39  28  65 SW17G28     N/A  WCI  30
MILK RIVER       N/A     41  30  65 W10         N/A
ONEFOUR          N/A     41  30  65 SW2         N/A
$$

REGIONAL REPORTS...SASKATCHEWAN

CITY           SKY/WX    TMP DP  RH WIND       PRES   REMARKS
SWIFT CURRENT  SUNNY     34  34 100 CALM      29.74S FOG
REGINA         CLOUDY    30  28  93 N7        29.79R FOG     WCI  23
SASKATOON      PTSUNNY   25  21  86 NW10      29.81R WCI  15
CYPRESS HILLS    N/A     41  23  48 W9          N/A
ROCKGLEN         N/A     41  30  65 N8          N/A
ASSINIBOIA       N/A     23  21  93 E3          N/A
$$




USA.gov is the U.S. government's official web portal to all federal, state and local government web resources and services.